FW4030 Weather Reports


Display with metric or nautical units.
time (UTC)temp
F
wind
direction
speed
MPH
gust
MPH
rain 1hr
in
rain 24hr
in
rain mn
in
humidity
%
barometer
mb
20260506044034 47 180 5.0 9.0 0.00 0.00 0.00 99 1017.5
20260506043036 47 180 5.0 8.0 0.00 0.00 0.00 99 1017.6
20260506042034 48 174 4.0 6.0 0.00 0.00 0.00 99 1017.5
20260506041036 47 169 2.0 4.0 0.00 0.00 0.00 99 1017.6
20260506040044 47 178 3.0 6.0 0.00 0.00 0.00 99 1017.6
20260506035034 48 180 3.0 7.0 0.00 0.00 0.00 99 1017.5
20260506034934 48 180 4.0 7.0 0.00 0.00 0.00 99 1017.6
20260506032935 48 166 2.0 5.0 0.00 0.00 0.00 99 1017.6
20260506032032 48 164 2.0 4.0 0.00 0.00 0.00 99 1017.7
20260506031034 48 180 5.0 10.0 0.00 0.00 0.00 99 1017.8
20260506030038 48 169 2.0 5.0 0.00 0.00 0.00 99 1017.8
20260506025034 48 180 3.0 6.0 0.00 0.00 0.00 99 1017.9
20260506024034 48 172 3.0 5.0 0.00 0.00 0.00 99 1017.9
20260506023133 47 180 3.0 7.0 0.00 0.00 0.00 99 1017.9
20260506022134 47 180 3.0 7.0 0.00 0.00 0.00 99 1018.0
20260506021133 47 180 4.0 8.0 0.00 0.00 0.00 99 1018.0
20260506015233 47 180 3.0 5.0 0.00 0.00 0.00 99 1018.0
20260506014235 47 180 5.0 10.0 0.00 0.00 0.00 99 1018.3
20260506012234 47 176 3.0 7.0 0.00 0.00 0.00 99 1018.2
20260506011235 47 180 4.0 5.0 0.00 0.00 0.00 99 1018.3
20260506011136 47 178 2.0 6.0 0.00 0.00 0.00 99 1018.3
20260506010135 47 180 5.0 8.0 0.00 0.00 0.00 99 1018.4
20260506005136 47 180 3.0 5.0 0.00 0.00 0.00 99 1018.4
20260506004133 47 180 4.0 7.0 0.00 0.00 0.00 99 1018.6
20260506003135 47 180 3.0 6.0 0.00 0.00 0.00 99 1018.6
20260506002232 48 180 3.0 5.0 0.00 0.00 0.00 99 1018.7
20260506001233 48 178 4.0 7.0 0.00 0.00 0.00 98 1018.8
20260506000235 48 180 4.0 7.0 0.00 0.00 0.00 98 1018.8
20260505235234 48 180 4.0 6.0 0.00 0.00 0.00 98 1018.9
20260505235135 48 178 4.0 7.0 0.00 0.00 0.00 98 1018.9
20260505233135 48 180 4.0 7.0 0.00 0.00 0.00 98 1019.1
20260505232134 48 180 4.0 6.0 0.00 0.00 0.00 98 1019.1
20260505231135 48 166 4.0 7.0 0.00 0.00 0.00 98 1019.1
20260505230233 48 165 2.0 5.0 0.00 0.00 0.00 98 1019.2
20260505225236 48 180 4.0 9.0 0.00 0.00 0.00 98 1019.4
20260505224234 49 176 3.0 7.0 0.00 0.00 0.00 98 1019.5
20260505223233 49 178 3.0 7.0 0.00 0.00 0.00 98 1019.3
20260505221334 49 180 5.0 8.0 0.00 0.00 0.00 98 1019.4
20260505221235 49 169 3.0 8.0 0.00 0.00 0.00 98 1019.5
20260505220234 49 180 4.0 7.0 0.00 0.00 0.00 98 1019.5
20260505214316 49 180 3.0 5.0 0.00 0.00 0.00 98 1019.7
20260505214214 49 180 4.0 7.0 0.00 0.00 0.00 98 1019.7
20260505213214 49 163 2.0 6.0 0.00 0.00 0.00 98 1019.6
20260505212216 49 172 2.0 3.0 0.00 0.00 0.00 98 1019.8
20260505212115 49 180 4.0 6.0 0.00 0.00 0.00 98 1019.7
20260505211114 49 180 3.0 7.0 0.00 0.00 0.00 98 1019.8
20260505210115 49 119 1.0 2.0 0.00 0.00 0.00 98 1019.9
20260505205116 49 180 3.0 5.0 0.00 0.00 0.00 98 1019.9
20260505204114 49 176 2.0 7.0 0.00 0.00 0.00 98 1019.9
20260505203114 49 180 2.0 4.0 0.00 0.00 0.00 98 1020.0
20260505202115 49 166 4.0 8.0 0.00 0.00 0.00 98 1020.0
20260505201114 49 180 4.0 7.0 0.00 0.00 0.00 98 1020.1
20260505194115 50 180 2.0 3.0 0.00 0.00 0.00 99 1019.8
20260505193213 50 180 3.0 5.0 0.00 0.00 0.00 99 1019.8
20260505192215 50 180 2.0 4.0 0.00 0.00 0.00 99 1019.9
20260505191016 50 180 1.0 2.0 0.00 0.00 0.00 98 1019.8
20260505185113 50 180 4.0 6.0 0.00 0.00 0.00 98 1019.5
20260505184116 50 151 2.0 3.0 0.00 0.00 0.00 98 1019.7
20260505183115 50 178 2.0 5.0 0.00 0.00 0.00 98 1019.7
20260505182214 50 109 1.0 6.0 0.00 0.00 0.00 98 1019.8
20260505182115 50 174 2.0 5.0 0.00 0.00 0.00 98 1019.7
20260505181214 50 172 1.0 3.0 0.00 0.00 0.00 98 1019.7
20260505181117 50 180 1.0 5.0 0.00 0.00 0.00 98 1019.7
20260505180116 50 151 2.0 5.0 0.00 0.00 0.00 98 1019.8
20260505175116 50 155 2.0 5.0 0.00 0.00 0.00 98 1019.8
20260505174214 50 180 3.0 7.0 0.00 0.00 0.00 98 1019.7
20260505173216 50 141 3.0 7.0 0.00 0.00 0.00 98 1019.8
20260505172216 50 169 3.0 5.0 0.00 0.00 0.00 98 1019.8
20260505172115 50 166 4.0 7.0 0.00 0.00 0.00 98 1019.9
20260505171130 50 144 1.0 3.0 0.00 0.00 0.00 98 1019.9
20260505164114 50 166 2.0 4.0 0.00 0.00 0.00 97 1019.9
20260505163116 50 164 4.0 8.0 0.00 0.00 0.00 97 1020.0
20260505162114 50 176 3.0 6.0 0.00 0.00 0.00 97 1020.0
20260505161115 50 180 4.0 8.0 0.00 0.00 0.00 97 1020.0
20260505160116 50 176 2.0 6.0 0.00 0.00 0.00 97 1020.1
20260505153115 50 180 2.0 5.0 0.00 0.00 0.00 97 1020.3
20260505152215 50 164 2.0 7.0 0.00 0.00 0.00 97 1020.3
20260505151214 50 151 1.0 3.0 0.00 0.00 0.00 97 1020.3
20260505140114 50 158 2.0 3.0 0.00 0.00 0.00 97 1020.7
20260505130215 49 180 4.0 6.0 0.00 0.00 0.00 98 1021.1
20260505124215 49 161 4.0 7.0 0.00 0.00 0.00 97 1021.2
20260505123313 49 174 4.0 7.0 0.00 0.00 0.00 97 1021.4
20260505122315 49 180 2.0 4.0 0.00 0.00 0.00 97 1021.4
20260505121314 49 180 2.0 6.0 0.00 0.00 0.00 97 1021.3
20260505121214 49 180 4.0 7.0 0.00 0.00 0.00 97 1021.4
20260505120214 49 129 2.0 5.0 0.00 0.00 0.00 97 1021.5
20260505115213 49 161 2.0 7.0 0.00 0.00 0.00 97 1021.3
20260505115113 49 172 4.0 8.0 0.00 0.00 0.00 97 1021.3
20260505114116 49 180 2.0 6.0 0.00 0.00 0.00 97 1021.5
20260505113115 49 172 2.0 4.0 0.00 0.00 0.00 97 1021.5
20260505111116 49 151 4.0 6.0 0.00 0.00 0.00 97 1021.5
20260505111015 49 151 4.0 10.0 0.00 0.00 0.00 97 1021.6
20260505102014 49 144 2.0 5.0 0.00 0.00 0.00 96 1021.7
20260505101016 49 164 2.0 4.0 0.00 0.00 0.00 96 1021.7
20260505100015 49 174 4.0 7.0 0.00 0.00 0.00 96 1021.8
20260505095014 49 161 2.0 5.0 0.00 0.00 0.00 96 1021.7
20260505094113 49 176 1.0 5.0 0.00 0.00 0.00 96 1021.8
20260505093114 48 148 3.0 6.0 0.00 0.00 0.00 97 1021.7
20260505093014 48 164 3.0 7.0 0.00 0.00 0.00 97 1021.7
20260505092014 48 172 3.0 7.0 0.00 0.00 0.00 97 1021.7
20260505091015 48 168 4.0 7.0 0.00 0.00 0.00 97 1021.8
20260505085113 48 180 5.0 8.0 0.00 0.00 0.00 97 1021.9
20260505084116 49 158 5.0 9.0 0.00 0.00 0.00 97 1021.8
20260505083116 49 174 2.0 6.0 0.00 0.00 0.00 97 1021.8
20260505082116 49 171 3.0 9.0 0.00 0.00 0.00 98 1021.9
20260505080215 49 169 3.0 7.0 0.00 0.00 0.00 98 1021.7
20260505075217 49 172 4.0 11.0 0.00 0.00 0.00 98 1021.7
20260505074216 49 178 3.0 7.0 0.00 0.00 0.00 98 1021.6
20260505074114 49 155 4.0 8.0 0.00 0.00 0.00 98 1021.7
20260505073213 49 169 3.0 7.0 0.00 0.00 0.00 98 1021.7
20260505072215 49 174 7.0 13.0 0.00 0.00 0.00 98 1021.8
20260505071216 49 178 3.0 8.0 0.00 0.00 0.00 98 1021.7
20260505070214 49 180 4.0 8.0 0.00 0.00 0.00 98 1021.8
20260505065215 49 174 3.0 8.0 0.00 0.00 0.00 98 1021.9
20260505064216 49 180 4.0 6.0 0.00 0.00 0.00 98 1021.8
20260505063313 49 176 3.0 5.0 0.00 0.00 0.00 98 1021.8
20260505063214 49 180 4.0 7.0 0.00 0.00 0.00 98 1021.9
20260505062216 50 174 2.0 6.0 0.00 0.00 0.00 98 1021.9
20260505061216 50 166 2.0 6.0 0.00 0.00 0.00 98 1021.8
20260505060216 50 178 2.0 5.0 0.00 0.00 0.00 98 1021.8
20260505055235 50 172 4.0 10.0 0.00 0.00 0.00 98 1021.9
20260505055114 50 180 2.0 3.0 0.00 0.00 0.00 98 1021.9
20260505054214 50 180 2.0 3.0 0.00 0.00 0.00 98 1021.8
20260505053215 50 151 2.0 5.0 0.00 0.00 0.00 98 1021.9
20260505052213 50 180 1.0 4.0 0.00 0.00 0.00 98 1021.8
20260505051216 50 180 5.0 7.0 0.00 0.00 0.00 97 1021.8
20260505050216 50 166 3.0 8.0 0.00 0.00 0.00 97 1021.7